Sioux City, IA

12:25 AM CST on December 11, 2019 (GMT -0600)
Sioux Gateway

Weather History for KSUX - October, 2019

Change the Weather History Date:

Wednesday, October 30, 2019

  Actual Average Record
Temperature  
Mean Temperature 27 °F 45 °F  
Max Temperature 34 °F 57 °F 85 °F (1950)
Min Temperature 20 °F 33 °F 6 °F (1925)
Degree Days  
Heating Degree Days 38 20  
Month to date heating degree days 573 432  
Since 1 July heating degree days 609 579  
Cooling Degree Days 0 0  
Month to date cooling degree days 0 8  
Year to date cooling degree days 910 869  
Moisture  
Dew Point 14 °F    
Average Humidity 57    
Maximum Humidity 72    
Minimum Humidity 41    
Precipitation  
Precipitation 0.00 in 0.05 in 4.42 in (1979)
Month to date precipitation 2.40 2.09  
Year to date precipitation 30.51 25.59  
Snow  
Snow 0.00 in 0.00 in 1.00 in (2002)
Month to date snowfall T 0.9  
Since 1 July snowfall T 0.9  
Since 1 September snowfall T 0.9  
Snow Depth 0.00 in    
Sea Level Pressure  
Sea Level Pressure 30.39 in    
Wind  
Wind Speed 8 mph ()    
Max Wind Speed 20 mph    
Max Gust Speed 24 mph    
Visibility 10.0 miles    
Events      
T = Trace of Precipitation, MM = Missing Value Source: Averaged Metar Reports

Daily Weather History Graph

Daily Weather History Graph

Search for Another Location

Airport or City:

Astronomy

Oct. 30, 2019 Rise Set
Actual Time 7:56 AM CDT 6:21 PM CDT
Civil Twilight 7:27 AM CDT 6:50 PM CDT
Nautical Twilight 6:53 AM CDT 7:23 PM CDT
Astronomical Twilight 6:21 AM CDT 7:56 PM CDT
Moon 10:43 AM CDT (10/30) 8:27 PM CDT (10/30)
Length of Visible Light 11h 23m
Length of Day
10h 25m
Waxing Crescent, 9% of the Moon is Illuminated
Oct 30
Waxing Crescent
Nov 4
First Quarter
Nov 12
Full
Nov 19
Last Quarter
Nov 26
New

Hourly Weather History & Observations

Time (CDT) Temp. Windchill Dew Point Humidity Pressure Visibility Wind Dir Wind Speed Gust Speed Precip Events Conditions
12:52 AM 27.0 °F 16.7 °F 14.0 °F 58% 30.44 in 10.0 mi NNW 11.5 mph - N/A   Clear
1:52 AM 26.1 °F 18.4 °F 15.1 °F 63% 30.44 in 10.0 mi NNW 6.9 mph - N/A   Clear
2:52 AM 27.0 °F 17.3 °F 15.1 °F 61% 30.43 in 10.0 mi NNW 10.4 mph - N/A   Overcast
3:52 AM 27.0 °F 20.5 °F 16.0 °F 63% 30.44 in 10.0 mi NW 5.8 mph - N/A   Overcast
4:52 AM 27.0 °F 20.5 °F 15.1 °F 61% 30.45 in 10.0 mi NNW 5.8 mph - N/A   Overcast
5:52 AM 27.0 °F 20.5 °F 15.1 °F 61% 30.45 in 10.0 mi NW 5.8 mph - N/A   Overcast
6:52 AM 26.1 °F 18.4 °F 17.1 °F 69% 30.45 in 10.0 mi NW 6.9 mph - N/A   Overcast
7:52 AM 26.1 °F 16.8 °F 16.0 °F 66% 30.45 in 10.0 mi NNW 9.2 mph - N/A   Overcast
8:52 AM 26.1 °F 17.6 °F 16.0 °F 66% 30.47 in 10.0 mi NW 8.1 mph - N/A   Overcast
9:52 AM 28.0 °F 19.3 °F 15.1 °F 58% 30.46 in 10.0 mi NNW 9.2 mph - N/A   Overcast
10:52 AM 30.0 °F 21.1 °F 15.1 °F 54% 30.46 in 10.0 mi NNW 10.4 mph - N/A   Overcast
11:52 AM 30.9 °F 21.2 °F 14.0 °F 50% 30.43 in 10.0 mi North 12.7 mph - N/A   Mostly Cloudy
12:52 PM 32.0 °F 21.6 °F 14.0 °F 48% 30.41 in 10.0 mi NNW 15.0 mph 21.9 mph N/A   Overcast
1:52 PM 33.1 °F 22.6 °F 14.0 °F 46% 30.38 in 10.0 mi NNW 16.1 mph - N/A   Scattered Clouds
2:52 PM 33.1 °F 23.0 °F 14.0 °F 46% 30.34 in 10.0 mi NNW 15.0 mph - N/A   Clear
3:52 PM 33.1 °F 23.0 °F 12.9 °F 43% 30.32 in 10.0 mi NNW 15.0 mph - N/A   Mostly Cloudy
4:52 PM 34.0 °F 24.2 °F 12.9 °F 42% 30.30 in 10.0 mi NNW 15.0 mph - N/A   Clear
5:52 PM 32.0 °F 22.1 °F 12.0 °F 44% 30.30 in 10.0 mi NNW 13.8 mph - N/A   Scattered Clouds
6:52 PM 30.0 °F 22.4 °F 12.9 °F 49% 30.32 in 10.0 mi NW 8.1 mph - N/A   Clear
7:52 PM 28.0 °F 20.8 °F 14.0 °F 56% 30.32 in 10.0 mi NW 6.9 mph - N/A   Partly Cloudy
8:52 PM 27.0 °F 21.6 °F 15.1 °F 61% 30.31 in 10.0 mi WNW 4.6 mph - N/A   Partly Cloudy
9:52 PM 25.0 °F 19.3 °F 15.1 °F 66% 30.30 in 10.0 mi WNW 4.6 mph - N/A   Mostly Cloudy
10:52 PM 21.9 °F 15.7 °F 14.0 °F 72% 30.31 in 10.0 mi West 4.6 mph - N/A   Clear
11:52 PM 21.0 °F 14.6 °F 12.9 °F 71% 30.30 in 10.0 mi WNW 4.6 mph - N/A   Clear